TimeCST,TemperatureF,Dew PointF,Humidity,Sea Level PressureIn,VisibilityMPH,Wind Direction,Wind SpeedMPH,Gust SpeedMPH,PrecipitationIn,Events,Conditions,WindDirDegrees,DateUTC
12:56 AM,26.1,15.1,63,30.25,-9999.0,NE,11.5,18.4,N/A,,Unknown,50,2013-03-05 06:56:00
1:56 AM,27.0,16.0,63,30.23,-9999.0,NE,13.8,20.7,N/A,,Unknown,50,2013-03-05 07:56:00
2:56 AM,27.0,17.1,66,30.23,-9999.0,NE,12.7,20.7,N/A,,Unknown,50,2013-03-05 08:56:00
3:56 AM,26.1,16.0,66,30.22,-9999.0,NE,17.3,25.3,N/A,,Unknown,50,2013-03-05 09:56:00
4:56 AM,25.0,15.1,66,30.21,-9999.0,NE,17.3,23.0,N/A,,Unknown,50,2013-03-05 10:56:00
5:56 AM,24.1,15.1,69,30.22,-9999.0,NE,13.8,19.6,N/A,,Unknown,50,2013-03-05 11:56:00
6:56 AM,24.1,14.0,65,30.23,-9999.0,NE,16.1,31.1,N/A,,Unknown,50,2013-03-05 12:56:00
7:56 AM,23.0,14.0,68,30.23,-9999.0,NE,13.8,21.9,N/A,,Unknown,50,2013-03-05 13:56:00
8:56 AM,23.0,15.1,72,30.26,-9999.0,NE,11.5,20.7,N/A,,Unknown,40,2013-03-05 14:56:00
9:56 AM,23.0,15.1,72,30.27,-9999.0,NE,13.8,19.6,N/A,,Unknown,40,2013-03-05 15:56:00
10:56 AM,25.0,12.9,60,30.28,-9999.0,NE,5.8,-,N/A,,Unknown,40,2013-03-05 16:56:00
11:56 AM,26.1,12.9,58,30.28,-9999.0,ENE,8.1,-,N/A,,Unknown,70,2013-03-05 17:56:00
12:56 PM,28.0,12.0,51,30.27,-9999.0,Variable,5.8,-,N/A,,Unknown,0,2013-03-05 18:56:00
1:56 PM,26.1,15.1,63,30.26,-9999.0,ESE,9.2,-,N/A,,Unknown,110,2013-03-05 19:56:00
2:56 PM,28.0,10.0,47,30.25,-9999.0,NE,6.9,-,N/A,,Unknown,50,2013-03-05 20:56:00
3:56 PM,28.0,10.0,47,30.26,-9999.0,Variable,6.9,17.3,N/A,,Unknown,0,2013-03-05 21:56:00
4:56 PM,28.0,9.0,45,30.27,-9999.0,NE,11.5,18.4,N/A,,Unknown,40,2013-03-05 22:56:00
5:56 PM,27.0,10.0,49,30.28,-9999.0,ENE,6.9,-,N/A,,Unknown,60,2013-03-05 23:56:00
6:56 PM,25.0,8.1,49,30.31,-9999.0,NE,6.9,-,N/A,,Unknown,50,2013-03-06 00:56:00
7:56 PM,24.1,7.0,48,30.30,-9999.0,Variable,4.6,-,N/A,,Unknown,0,2013-03-06 01:56:00
8:56 PM,23.0,7.0,50,30.31,-9999.0,North,5.8,-,N/A,,Unknown,360,2013-03-06 02:56:00
9:56 PM,21.9,6.1,51,30.32,-9999.0,Variable,4.6,-,N/A,,Unknown,0,2013-03-06 03:56:00
10:56 PM,21.9,6.1,51,30.34,-9999.0,North,8.1,-,N/A,,Unknown,350,2013-03-06 04:56:00
11:56 PM,21.0,7.0,55,30.33,-9999.0,North,8.1,-,N/A,,Unknown,360,2013-03-06 05:56:00